Change the Weather History Date:

Monday, May 6, 2013

  Actual Average (KLAS) Record (KLAS)
Temperature  
Mean Temperature 68 °F 74 °F  
Max Temperature 77 °F 85 °F 103 °F (1947)
Min Temperature 59 °F 63 °F 43 °F (1964)
Degree Days  
Heating Degree Days 0 0  
Month to date heating degree days 4  
Since 1 July heating degree days 1947  
Cooling Degree Days 3 10  
Month to date cooling degree days 53  
Year to date cooling degree days 213  
Growing Degree Days 18 (Base 50)    
Moisture  
Dew Point 33 °F    
Average Humidity 27    
Maximum Humidity 39    
Minimum Humidity 19    
Precipitation  
Precipitation 0.00 in 0.00 in 0.59 in (1969)
Month to date precipitation 0.02  
Year to date precipitation 1.91  
Snow  
Snow 0.00 in 0.00 in 0.00 in ()
Month to date snowfall 0.0  
Since 1 July snowfall 0.3  
Snow Depth -    
Sea Level Pressure  
Sea Level Pressure 29.85 in    
Wind  
Wind Speed 7 mph (South)    
Max Wind Speed 25 mph    
Max Gust Speed 33 mph    
Visibility 10 miles    
Events Thunderstorm    
T = Trace of Precipitation, MM = Missing Value Source: NWS Daily Summary

Daily Weather History Graph

Daily Weather History Graph

Search for Another Location

Airport or City:

Trip Planner

Search our weather history database for the weather conditions in past years. The results will help you decide how hot, cold, wet, or windy it might be!

Date:

Astronomy

May. 06, 2013 Rise Set
Actual Time 5:41 AM PDT 7:31 PM PDT
Civil Twilight 5:13 AM PDT 7:59 PM PDT
Nautical Twilight 4:39 AM PDT 8:32 PM PDT
Astronomical Twilight 4:04 AM PDT 9:08 PM PDT
Moon 3:39 AM PDT (5/6) 4:40 PM PDT (5/6)
Length of Visible Light 14h 45m
Length of Day
13h 49m
Waning Crescent, 10% of the Moon is Illuminated
May 6
Waning Crescent
May 9
New
May 17
First Quarter
May 24
Full
May 31
Last Quarter

Hourly Weather History & Observations

Time (PDT) Temp. Dew Point Humidity Pressure Visibility Wind Dir Wind Speed Gust Speed Precip Events Conditions
12:15 AM 64.4 °F 21.2 °F 19% 29.81 in 10.0 mi Calm Calm - N/A   Mostly Cloudy
12:35 AM 62.6 °F 26.6 °F 26% 29.81 in 10.0 mi Calm Calm - N/A   Mostly Cloudy
12:55 AM 62.6 °F 26.6 °F 26% 29.81 in 10.0 mi Calm Calm - N/A   Overcast
1:15 AM 64.4 °F 24.8 °F 22% 29.81 in 10.0 mi Calm Calm - N/A Thunderstorm Overcast
1:35 AM 62.6 °F 24.8 °F 24% 29.81 in 10.0 mi Calm Calm - N/A   Overcast
1:55 AM 66.2 °F 23.0 °F 19% 29.81 in 10.0 mi Calm Calm - N/A   Overcast
2:15 AM 66.2 °F 24.8 °F 21% 29.80 in 10.0 mi Calm Calm - N/A   Overcast
2:35 AM 64.4 °F 28.4 °F 26% 29.80 in 10.0 mi Calm Calm - N/A   Overcast
2:55 AM 66.2 °F 24.8 °F 21% 29.81 in 10.0 mi Calm Calm - N/A   Overcast
3:15 AM 66.2 °F 24.8 °F 21% 29.81 in 10.0 mi Calm Calm - N/A   Overcast
3:35 AM 64.4 °F 24.8 °F 22% 29.82 in 10.0 mi SW 3.5 mph - N/A   Overcast
3:55 AM 64.4 °F 24.8 °F 22% 29.82 in 10.0 mi SW 4.6 mph - N/A   Mostly Cloudy
4:15 AM 64.4 °F 24.8 °F 22% 29.82 in 10.0 mi Calm Calm - N/A   Overcast
4:35 AM 60.8 °F 28.4 °F 29% 29.82 in 10.0 mi Calm Calm - N/A   Overcast
4:55 AM 62.6 °F 26.6 °F 26% 29.82 in 10.0 mi Calm Calm - N/A   Scattered Clouds
5:15 AM 59.0 °F 28.4 °F 31% 29.83 in 10.0 mi ESE 3.5 mph - N/A Thunderstorm Clear
5:35 AM 60.8 °F 28.4 °F 29% 29.84 in 10.0 mi ESE 3.5 mph - N/A   Clear
5:55 AM 60.8 °F 28.4 °F 29% 29.85 in 10.0 mi Calm Calm - N/A   Scattered Clouds
6:15 AM 59.0 °F 32.0 °F 36% 29.86 in 10.0 mi South 4.6 mph - N/A   Mostly Cloudy
6:35 AM 59.0 °F 32.0 °F 36% 29.87 in 10.0 mi SSW 5.8 mph - N/A   Mostly Cloudy
6:55 AM 59.0 °F 32.0 °F 36% 29.88 in 10.0 mi South 3.5 mph - N/A   Scattered Clouds
7:15 AM 62.6 °F 32.0 °F 32% 29.88 in 10.0 mi South 9.2 mph - N/A   Clear
7:35 AM 64.4 °F 33.8 °F 32% 29.89 in 10.0 mi SSW 12.7 mph 17.3 mph N/A   Clear
7:55 AM 66.2 °F 33.8 °F 30% 29.90 in 10.0 mi SSW 11.5 mph - N/A   Clear
8:15 AM 66.2 °F 37.4 °F 35% 29.90 in 10.0 mi SSE 5.8 mph - N/A   Clear
8:35 AM 66.2 °F 35.6 °F 32% 29.91 in 10.0 mi SSW 10.4 mph - N/A   Clear
8:55 AM 68.0 °F 35.6 °F 30% 29.92 in 10.0 mi SW 9.2 mph - N/A   Scattered Clouds
9:15 AM 68.0 °F 35.6 °F 30% 29.91 in 10.0 mi SW 10.4 mph - N/A   Partly Cloudy
9:35 AM 68.0 °F 35.6 °F 30% 29.92 in 10.0 mi SSW 6.9 mph - N/A   Scattered Clouds
9:55 AM 68.0 °F 37.4 °F 33% 29.92 in 10.0 mi SSW 3.5 mph - N/A   Scattered Clouds
10:15 AM 69.8 °F 37.4 °F 31% 29.92 in 10.0 mi SSW 5.8 mph - N/A   Scattered Clouds
10:35 AM 71.6 °F 39.2 °F 31% 29.92 in 10.0 mi SSW 11.5 mph 20.7 mph N/A   Partly Cloudy
10:55 AM 71.6 °F 39.2 °F 31% 29.91 in 10.0 mi South 15.0 mph 21.9 mph N/A   Partly Cloudy
11:15 AM 71.6 °F 39.2 °F 31% 29.91 in 10.0 mi SE 17.3 mph 26.5 mph N/A   Mostly Cloudy
11:35 AM 73.4 °F 39.2 °F 29% 29.91 in 10.0 mi SSE 21.9 mph 26.5 mph N/A   Overcast
11:55 AM 73.4 °F 37.4 °F 27% 29.90 in 10.0 mi SE 21.9 mph 27.6 mph N/A   Mostly Cloudy
12:15 PM 73.4 °F 37.4 °F 27% 29.89 in 10.0 mi SE 17.3 mph 29.9 mph N/A   Mostly Cloudy
12:35 PM 73.4 °F 37.4 °F 27% 29.89 in 10.0 mi SE 16.1 mph 24.2 mph N/A   Mostly Cloudy
12:55 PM 73.4 °F 37.4 °F 27% 29.88 in 10.0 mi SE 15.0 mph 28.8 mph N/A   Mostly Cloudy
1:15 PM 73.4 °F 37.4 °F 27% 29.87 in 10.0 mi SE 20.7 mph 24.2 mph N/A   Mostly Cloudy
1:35 PM 75.2 °F 37.4 °F 25% 29.87 in 10.0 mi SSE 19.6 mph 27.6 mph N/A Thunderstorm Mostly Cloudy
1:55 PM 75.2 °F 37.4 °F 25% 29.86 in 10.0 mi SSE 23.0 mph 33.4 mph N/A   Scattered Clouds
2:15 PM 75.2 °F 37.4 °F 25% 29.85 in 10.0 mi SE 25.3 mph 33.4 mph N/A   Mostly Cloudy
2:35 PM 77.0 °F 39.2 °F 26% 29.85 in 10.0 mi SSE 19.6 mph 32.2 mph N/A   Scattered Clouds
2:55 PM 77.0 °F 33.8 °F 21% 29.84 in 10.0 mi South 18.4 mph 29.9 mph N/A   Partly Cloudy
3:15 PM 77.0 °F 32.0 °F 19% 29.83 in 10.0 mi South 19.6 mph 32.2 mph N/A Thunderstorm Scattered Clouds
3:55 PM 75.2 °F 32.0 °F 21% 29.83 in 10.0 mi South 17.3 mph 28.8 mph N/A   Scattered Clouds
4:15 PM 73.4 °F 32.0 °F 22% 29.83 in 10.0 mi West 16.1 mph 27.6 mph N/A   Mostly Cloudy
4:35 PM 75.2 °F 33.8 °F 22% 29.83 in 10.0 mi SW 10.4 mph - N/A   Scattered Clouds
4:55 PM 73.4 °F 39.2 °F 29% 29.83 in 10.0 mi WSW 8.1 mph 23.0 mph N/A   Scattered Clouds
5:15 PM 75.2 °F 32.0 °F 21% 29.82 in 10.0 mi South 17.3 mph 23.0 mph N/A   Scattered Clouds
5:35 PM 75.2 °F 32.0 °F 21% 29.82 in 10.0 mi South 13.8 mph 27.6 mph N/A   Mostly Cloudy
5:55 PM 73.4 °F 32.0 °F 22% 29.81 in 10.0 mi South 16.1 mph 24.2 mph N/A Thunderstorm Scattered Clouds
6:15 PM 73.4 °F 35.6 °F 25% 29.82 in 10.0 mi South 17.3 mph 21.9 mph N/A   Scattered Clouds
6:35 PM 73.4 °F 35.6 °F 25% 29.82 in 10.0 mi SSE 19.6 mph 24.2 mph N/A   Scattered Clouds
6:55 PM 73.4 °F 35.6 °F 25% 29.82 in 10.0 mi South 15.0 mph 25.3 mph N/A   Mostly Cloudy
7:15 PM 73.4 °F 33.8 °F 23% 29.82 in 10.0 mi South 19.6 mph 29.9 mph N/A   Mostly Cloudy
7:35 PM 71.6 °F 32.0 °F 23% 29.83 in 10.0 mi South 18.4 mph 25.3 mph N/A   Scattered Clouds
7:55 PM 71.6 °F 32.0 °F 23% 29.84 in 10.0 mi South 15.0 mph 20.7 mph N/A   Mostly Cloudy
8:15 PM 71.6 °F 32.0 °F 23% 29.84 in 10.0 mi South 13.8 mph - N/A Thunderstorm Mostly Cloudy
8:35 PM 69.8 °F 32.0 °F 25% 29.84 in 10.0 mi South 10.4 mph - N/A   Partly Cloudy
8:55 PM 68.0 °F 32.0 °F 26% 29.85 in 10.0 mi South 10.4 mph - N/A   Partly Cloudy
9:15 PM 68.0 °F 30.2 °F 24% 29.86 in 10.0 mi South 11.5 mph - N/A Thunderstorm Mostly Cloudy
9:35 PM 68.0 °F 32.0 °F 26% 29.86 in 10.0 mi South 11.5 mph - N/A   Overcast
9:55 PM 68.0 °F 32.0 °F 26% 29.87 in 10.0 mi South 9.2 mph - N/A   Mostly Cloudy
10:15 PM 66.2 °F 33.8 °F 30% 29.88 in 10.0 mi South 9.2 mph - N/A   Scattered Clouds
10:35 PM 66.2 °F 35.6 °F 32% 29.88 in 10.0 mi SSW 8.1 mph - N/A Thunderstorm Mostly Cloudy
10:55 PM 64.4 °F 35.6 °F 34% 29.88 in 10.0 mi SSW 6.9 mph - N/A   Partly Cloudy
11:15 PM 62.6 °F 35.6 °F 37% 29.88 in 10.0 mi SSW 6.9 mph - N/A   Clear
11:35 PM 62.6 °F 35.6 °F 37% 29.89 in 10.0 mi SSW 5.8 mph - N/A   Clear
11:55 PM 62.6 °F 37.4 °F 39% 29.89 in 10.0 mi SSW 9.2 mph - N/A   Clear